Weather History for KRPJ - November, 2011

Change the Weather History Date:

Saturday, November 12, 2011

  Actual Average (KRFD) Record (KRFD)
Temperature  
Mean Temperature 44 °F 41 °F  
Max Temperature 55 °F 50 °F 68 °F (1909)
Min Temperature 32 °F 32 °F 7 °F (1986)
Degree Days  
Heating Degree Days 22 24  
Month to date heating degree days 258  
Since 1 July heating degree days 811  
Cooling Degree Days 0 0  
Month to date cooling degree days 0  
Year to date cooling degree days 820  
Moisture  
Dew Point 35 °F    
Average Humidity 75    
Maximum Humidity 100    
Minimum Humidity 51    
Precipitation  
Precipitation 0.00 in 0.08 in 1.69 in (1922)
Month to date precipitation 1.05  
Year to date precipitation 32.73  
Snow  
Snow 0.00 in 0.00 in 3.50 in (1959)
Month to date snowfall 0.1  
Since 1 July snowfall 0.2  
Since 1 September snowfall 0.2  
Snow Depth -    
Sea Level Pressure  
Sea Level Pressure 29.72 in    
Wind  
Wind Speed 10 mph (South)    
Max Wind Speed 24 mph    
Max Gust Speed 33 mph    
Visibility 10 miles    
Events      
T = Trace of Precipitation, MM = Missing Value Source: NWS Daily Summary

Daily Weather History Graph

Daily Weather History Graph

Search for Another Location

Airport or City:

Trip Planner

Search our weather history database for the weather conditions in past years. The results will help you decide how hot, cold, wet, or windy it might be!

Date:

Astronomy

Nov. 12, 2011 Rise Set
Actual Time 6:41 AM CST 4:38 PM CST
Civil Twilight 6:12 AM CST 5:08 PM CST
Nautical Twilight 5:38 AM CST 5:41 PM CST
Astronomical Twilight 5:05 AM CST 6:14 PM CST
Moon 5:52 PM CST (11/12) 8:25 AM CST (11/12)
Length of Visible Light 10h 55m
Length of Day
9h 56m
Full, 97% of the Moon is Illuminated
Nov 12
Full
Nov 18
Last Quarter
Nov 25
New
Dec 2
First Quarter
Dec 10
Full

Hourly Weather History & Observations

Time (CST) Temp. Windchill Dew Point Humidity Pressure Visibility Wind Dir Wind Speed Gust Speed Precip Events Conditions
12:15 AM 32.0 °F 26.4 °F 30.2 °F 93% 29.74 in 10.0 mi SW 5.8 mph - N/A   Clear
12:35 AM 33.8 °F 30.8 °F 30.2 °F 87% 29.74 in 10.0 mi SW 3.5 mph - N/A   Clear
12:55 AM 32.0 °F 28.7 °F 30.2 °F 93% 29.74 in 10.0 mi South 3.5 mph - N/A   Clear
1:15 AM 32.0 °F 28.7 °F 30.2 °F 93% 29.74 in 10.0 mi South 3.5 mph - N/A   Clear
1:35 AM 32.0 °F 27.5 °F 30.2 °F 93% 29.74 in 10.0 mi South 4.6 mph - N/A   Clear
1:55 AM 32.0 °F 27.5 °F 30.2 °F 93% 29.74 in 10.0 mi South 4.6 mph - N/A   Clear
2:15 AM 32.0 °F 24.8 °F 30.2 °F 93% 29.74 in 10.0 mi South 8.1 mph - N/A   Clear
2:35 AM 32.0 °F 25.6 °F 30.2 °F 93% 29.74 in 10.0 mi SSW 6.9 mph - N/A   Clear
2:55 AM 32.0 °F 24.8 °F 30.2 °F 93% 29.74 in 10.0 mi South 8.1 mph - N/A   Clear
3:15 AM 32.0 °F 24.8 °F 30.2 °F 93% 29.74 in 10.0 mi South 8.1 mph - N/A   Clear
3:55 AM 32.0 °F - 30.2 °F 93% 29.76 in 10.0 mi Calm Calm - N/A   Clear
4:15 AM 32.0 °F 28.7 °F 30.2 °F 93% 29.76 in 10.0 mi SSE 3.5 mph - N/A   Clear
4:35 AM 32.0 °F 26.4 °F 30.2 °F 93% 29.76 in 10.0 mi South 5.8 mph - N/A   Clear
4:55 AM 32.0 °F 24.8 °F 30.2 °F 93% 29.75 in 10.0 mi South 8.1 mph - N/A   Clear
5:15 AM 32.0 °F 23.6 °F 30.2 °F 93% 29.76 in 10.0 mi South 10.4 mph - N/A   Clear
5:35 AM 32.0 °F 24.2 °F 32.0 °F 100% 29.76 in 10.0 mi South 9.2 mph - N/A   Clear
5:55 AM 32.0 °F 25.6 °F 30.2 °F 93% 29.76 in 10.0 mi South 6.9 mph - N/A   Clear
6:15 AM 32.0 °F 27.5 °F 30.2 °F 93% 29.76 in 10.0 mi South 4.6 mph - N/A   Clear
6:35 AM 32.0 °F 24.8 °F 30.2 °F 93% 29.77 in 10.0 mi South 8.1 mph - N/A   Clear
6:55 AM 33.8 °F 26.4 °F 32.0 °F 93% 29.77 in 10.0 mi South 9.2 mph - N/A   Clear
7:15 AM 33.8 °F 25.8 °F 32.0 °F 93% 29.77 in 10.0 mi South 10.4 mph - N/A   Clear
7:35 AM 33.8 °F 27.0 °F 32.0 °F 93% 29.78 in 10.0 mi South 8.1 mph - N/A   Clear
7:55 AM 35.6 °F 28.6 °F 32.0 °F 87% 29.79 in 10.0 mi SSW 9.2 mph - N/A   Clear
8:15 AM 35.6 °F 29.2 °F 32.0 °F 87% 29.78 in 10.0 mi South 8.1 mph - N/A   Clear
8:35 AM 37.4 °F 30.8 °F 33.8 °F 87% 29.78 in 10.0 mi South 9.2 mph - N/A   Clear
9:15 AM 42.8 °F 36.2 °F 35.6 °F 76% 29.78 in 10.0 mi SSW 12.7 mph - N/A   Clear
9:35 AM 44.6 °F 37.8 °F 35.6 °F 71% 29.79 in 10.0 mi SSW 15.0 mph - N/A   Clear
9:55 AM 46.4 °F 40.4 °F 37.4 °F 71% 29.79 in 10.0 mi SSW 13.8 mph - N/A   Clear
10:15 AM 48.2 °F - 37.4 °F 66% 29.79 in 10.0 mi SSW 12.7 mph - N/A   Clear
10:35 AM 50.0 °F - 37.4 °F 62% 29.79 in 10.0 mi SSW 15.0 mph - N/A   Clear
10:55 AM 50.0 °F - 37.4 °F 62% 29.79 in 10.0 mi SSW 15.0 mph - N/A   Clear
11:15 AM 51.8 °F - 39.2 °F 62% 29.77 in 10.0 mi SSW 18.4 mph - N/A   Clear
11:35 AM 51.8 °F - 37.4 °F 58% 29.76 in 10.0 mi SSW 18.4 mph - N/A   Clear
11:55 AM 53.6 °F - 39.2 °F 58% 29.75 in 10.0 mi SSW 17.3 mph - N/A   Clear
12:15 PM 53.6 °F - 39.2 °F 58% 29.74 in 10.0 mi SSW 15.0 mph - N/A   Clear
12:35 PM 53.6 °F - 37.4 °F 54% 29.73 in 10.0 mi South 16.1 mph 23.0 mph N/A   Clear
1:15 PM 53.6 °F - 37.4 °F 54% 29.71 in 10.0 mi South 13.8 mph - N/A   Clear
1:35 PM 55.4 °F - 37.4 °F 51% 29.70 in 10.0 mi South 17.3 mph - N/A   Clear
1:55 PM 55.4 °F - 37.4 °F 51% 29.69 in 10.0 mi South 13.8 mph - N/A   Clear
2:15 PM 55.4 °F - 37.4 °F 51% 29.68 in 10.0 mi South 16.1 mph - N/A   Clear
2:35 PM 55.4 °F - 37.4 °F 51% 29.67 in 10.0 mi South 15.0 mph - N/A   Clear
2:55 PM 53.6 °F - 37.4 °F 54% 29.67 in 10.0 mi South 18.4 mph 23.0 mph N/A   Clear
3:15 PM 53.6 °F - 37.4 °F 54% 29.67 in 10.0 mi South 16.1 mph 19.6 mph N/A   Clear
3:35 PM 53.6 °F - 37.4 °F 54% 29.66 in 10.0 mi SSE 17.3 mph - N/A   Clear
3:55 PM 51.8 °F - 39.2 °F 62% 29.65 in 10.0 mi SSE 16.1 mph - N/A   Clear
4:15 PM 51.8 °F - 39.2 °F 62% 29.65 in 10.0 mi SSE 13.8 mph - N/A   Clear
4:35 PM 50.0 °F - 39.2 °F 66% 29.64 in 10.0 mi SSE 16.1 mph - N/A   Clear
4:55 PM 50.0 °F - 39.2 °F 66% 29.63 in 10.0 mi SSE 16.1 mph - N/A   Clear
5:15 PM 50.0 °F - 39.2 °F 66% 29.62 in 10.0 mi SSE 16.1 mph - N/A   Clear
5:35 PM 51.8 °F - 37.4 °F 58% 29.62 in 10.0 mi South 19.6 mph 24.2 mph N/A   Clear
5:55 PM 51.8 °F - 37.4 °F 58% 29.61 in 10.0 mi South 21.9 mph 33.4 mph N/A   Clear
6:15 PM 50.0 °F - 37.4 °F 62% 29.61 in 10.0 mi South 24.2 mph 31.1 mph N/A   Clear
6:35 PM 50.0 °F - 37.4 °F 62% 29.60 in 10.0 mi South 24.2 mph - N/A   Clear
6:55 PM 50.0 °F - 37.4 °F 62% 29.61 in 10.0 mi South 20.7 mph 28.8 mph N/A   Clear
7:35 PM 48.2 °F - 37.4 °F 66% 29.61 in 10.0 mi South 20.7 mph 28.8 mph N/A   Clear
8:15 PM 50.0 °F - 41.0 °F 71% 29.60 in 10.0 mi South 19.6 mph - N/A   Clear
8:35 PM 50.0 °F - 41.0 °F 71% 29.60 in 10.0 mi South 21.9 mph 29.9 mph N/A   Clear
8:55 PM 50.0 °F - 42.8 °F 76% 29.59 in 10.0 mi South 20.7 mph - N/A   Clear
9:15 PM 50.0 °F - 42.8 °F 76% 29.59 in 10.0 mi South 23.0 mph 29.9 mph N/A   Clear
9:35 PM 50.0 °F - 42.8 °F 76% 29.58 in 10.0 mi South 24.2 mph 28.8 mph N/A   Clear
9:55 PM 50.0 °F - 42.8 °F 76% 29.57 in 10.0 mi South 20.7 mph - N/A   Clear
10:15 PM 50.0 °F - 42.8 °F 76% 29.56 in 10.0 mi South 19.6 mph - N/A   Clear
10:35 PM 50.0 °F - 42.8 °F 76% 29.56 in 10.0 mi South 19.6 mph 25.3 mph N/A   Clear
10:55 PM 50.0 °F - 42.8 °F 76% 29.54 in 10.0 mi South 19.6 mph 24.2 mph N/A   Clear
11:15 PM 50.0 °F - 42.8 °F 76% 29.53 in 10.0 mi South 17.3 mph - N/A   Clear
11:35 PM 48.2 °F - 42.8 °F 82% 29.52 in 10.0 mi South 16.1 mph - N/A   Clear
11:55 PM 48.2 °F - 42.8 °F 82% 29.52 in 10.0 mi South 17.3 mph - N/A   Clear